TimeEDT,TemperatureF,Dew PointF,Humidity,Sea Level PressureIn,VisibilityMPH,Wind Direction,Wind SpeedMPH,Gust SpeedMPH,PrecipitationIn,Events,Conditions,WindDirDegrees,DateUTC
12:21 AM,60.8,53.6,77,29.72,8.0,WSW,10.4,17.3,0.00,Rain,Light Rain,240,2011-10-27 04:21:00
12:51 AM,57.9,55.0,90,29.73,5.0,WSW,5.8,-,0.12,Rain,Light Rain,250,2011-10-27 04:51:00
1:12 AM,57.2,55.4,94,29.72,5.0,West,5.8,-,0.01,Rain,Light Rain,260,2011-10-27 05:12:00
1:51 AM,57.9,55.9,93,29.73,4.0,West,6.9,-,0.04,Rain,Light Rain,280,2011-10-27 05:51:00
1:54 AM,57.2,55.4,94,29.72,2.5,NNW,15.0,18.4,N/A,Rain,Light Rain,330,2011-10-27 05:54:00
2:08 AM,53.6,51.8,94,29.72,4.0,NNW,16.1,-,0.08,Rain,Light Rain,340,2011-10-27 06:08:00
2:40 AM,53.6,50.0,88,29.72,7.0,NNW,12.7,-,0.10,Rain,Light Rain,330,2011-10-27 06:40:00
2:51 AM,53.1,50.0,89,29.74,7.0,NNW,11.5,-,0.12,Rain,Light Rain,330,2011-10-27 06:51:00
3:11 AM,51.8,50.0,94,29.73,10.0,NNW,9.2,-,0.01,,Light Drizzle,330,2011-10-27 07:11:00
3:51 AM,51.1,48.0,89,29.75,5.0,NNW,9.2,-,0.02,Rain,Light Rain,330,2011-10-27 07:51:00
4:51 AM,50.0,46.9,89,29.75,7.0,NNW,9.2,-,0.02,Rain,Light Rain,340,2011-10-27 08:51:00
5:39 AM,50.0,46.4,87,29.75,6.0,NW,8.1,-,0.01,Rain,Light Rain,310,2011-10-27 09:39:00
6:10 AM,48.2,46.4,93,29.74,8.0,NNW,8.1,-,0.02,Rain,Light Rain,340,2011-10-27 10:10:00
6:51 AM,48.9,46.0,90,29.75,10.0,NNW,10.4,-,0.03,Rain,Light Rain,340,2011-10-27 10:51:00
7:51 AM,48.0,45.0,89,29.76,6.0,NNW,9.2,-,0.01,Rain,Light Rain,340,2011-10-27 11:51:00
8:51 AM,46.9,44.1,90,29.76,10.0,NNW,9.2,-,0.02,,Light Drizzle,340,2011-10-27 12:51:00
9:51 AM,46.9,44.1,90,29.77,6.0,NW,11.5,-,0.00,Rain,Light Rain,320,2011-10-27 13:51:00
10:30 AM,46.4,42.8,87,29.74,4.0,NNW,9.2,-,0.01,Rain,Light Rain,330,2011-10-27 14:30:00
10:51 AM,46.0,43.0,89,29.76,5.0,NNW,9.2,-,0.02,Rain,Light Rain,330,2011-10-27 14:51:00
11:42 AM,46.4,42.8,87,29.74,5.0,NW,12.7,-,0.01,,Light Drizzle,320,2011-10-27 15:42:00
11:51 AM,45.0,42.1,90,29.77,5.0,NNW,12.7,-,0.01,Rain,Light Rain,330,2011-10-27 15:51:00
11:55 AM,44.6,42.8,93,29.75,3.0,NW,10.4,-,0.00,Rain,Light Rain,320,2011-10-27 15:55:00
12:51 PM,44.1,41.0,89,29.77,7.0,NW,16.1,24.2,0.01,Rain,Light Rain,320,2011-10-27 16:51:00
1:16 PM,44.6,39.2,81,29.75,3.0,NNW,16.1,23.0,0.01,Rain,Light Rain,330,2011-10-27 17:16:00
1:51 PM,43.0,39.0,86,29.78,5.0,NNW,13.8,-,0.04,Rain,Light Rain,340,2011-10-27 17:51:00
2:30 PM,42.8,39.2,87,29.76,9.0,NW,10.4,-,0.01,Rain,Light Rain,320,2011-10-27 18:30:00
2:51 PM,43.0,39.0,86,29.81,10.0,NW,12.7,-,0.01,Rain,Light Rain,320,2011-10-27 18:51:00
3:51 PM,43.0,39.0,86,29.86,10.0,NNW,13.8,-,0.00,Rain,Light Rain,330,2011-10-27 19:51:00
4:51 PM,42.1,37.9,85,29.91,10.0,NNW,12.7,-,0.01,Rain,Light Rain,330,2011-10-27 20:51:00
5:51 PM,42.1,36.0,79,29.96,10.0,North,12.7,-,0.00,,Overcast,350,2011-10-27 21:51:00
6:51 PM,41.0,35.1,79,30.01,10.0,North,10.4,-,N/A,,Overcast,360,2011-10-27 22:51:00
7:26 PM,39.2,33.8,81,30.00,10.0,North,6.9,-,N/A,,Overcast,350,2011-10-27 23:26:00
7:51 PM,39.9,35.1,83,30.06,10.0,North,5.8,-,0.00,Rain,Light Rain,350,2011-10-27 23:51:00
8:12 PM,39.2,35.6,87,30.03,10.0,North,5.8,-,0.00,Rain,Light Rain,360,2011-10-28 00:12:00
8:42 PM,39.2,35.6,87,30.05,10.0,NNW,4.6,-,0.01,,Overcast,340,2011-10-28 00:42:00
8:51 PM,39.9,36.0,86,30.09,9.0,NNW,8.1,-,0.01,,Overcast,330,2011-10-28 00:51:00
9:51 PM,39.0,35.1,86,30.12,10.0,NNW,6.9,-,N/A,,Mostly Cloudy,330,2011-10-28 01:51:00
10:42 PM,37.4,35.6,93,30.09,10.0,NNW,6.9,-,N/A,,Scattered Clouds,340,2011-10-28 02:42:00
10:51 PM,39.0,35.1,86,30.14,10.0,NNW,6.9,-,N/A,,Scattered Clouds,330,2011-10-28 02:51:00
11:51 PM,37.0,33.1,86,30.13,10.0,North,6.9,-,N/A,,Partly Cloudy,10,2011-10-28 03:51:00